FW9692 Weather Reports


Display with metric or nautical units.
time (UTC)temp
F
wind
direction
speed
MPH
gust
MPH
rain 1hr
in
rain 24hr
in
rain mn
in
humidity
%
barometer
mb
20260905024529 91 273 7.0 8.0 0.00 0.00 0.00 34 997.6
20260905023101 91 294 4.0 8.0 0.00 0.00 0.00 34 997.4
20260905021526 92 244 7.0 10.0 0.00 0.00 0.00 33 997.1
20260905020025 92 232 6.0 9.0 0.00 0.00 0.00 33 996.9
20260905014529 92 219 6.0 10.0 0.00 0.00 0.00 33 996.6
20260905013029 93 216 9.0 11.0 0.00 0.00 0.00 33 996.6
20260905011533 93 219 8.0 10.0 0.00 0.00 0.00 33 996.6
20260905010032 93 221 11.0 17.0 0.00 0.00 0.00 33 996.6
20260905004525 94 211 14.0 16.0 0.00 0.00 0.00 32 996.6
20260905003031 94 219 15.0 19.0 0.00 0.00 0.00 32 996.5
20260905001531 93 215 15.0 22.0 0.00 0.00 0.00 34 996.3
20260905000030 95 194 14.0 22.0 0.00 0.00 0.00 32 996.3
20260904234531 95 207 17.0 24.0 0.00 0.00 0.00 32 996.1
20260904233017 94 218 19.0 23.0 0.00 0.00 0.00 33 996.1
20260904231517 94 203 22.0 26.0 0.00 0.00 0.00 33 995.9
20260904230029 93 209 23.0 30.0 0.00 0.00 0.00 35 996.0
20260904224540 97 261 10.0 16.0 0.00 0.00 0.00 28 995.8
20260904223045 97 240 5.0 15.0 0.00 0.00 0.00 28 995.9
20260904221533 98 166 9.0 18.0 0.00 0.00 0.00 27 996.1
20260904220021 97 61 2.0 14.0 0.00 0.00 0.00 28 996.3
20260904214508 98 313 3.0 16.0 0.00 0.00 0.00 28 996.4
20260904213015 97 257 2.0 13.0 0.00 0.00 0.00 28 996.5
20260904211511 97 293 7.0 15.0 0.00 0.00 0.00 28 996.6
20260904210012 97 153 9.0 19.0 0.00 0.00 0.00 28 996.8
20260904204507 96 212 10.0 16.0 0.00 0.00 0.00 31 997.0
20260904203100 96 155 8.0 16.0 0.00 0.00 0.00 31 997.2
20260904201557 96 241 13.0 20.0 0.00 0.00 0.00 30 997.5
20260904200058 96 229 11.0 23.0 0.00 0.00 0.00 31 997.6
20260904194558 96 173 2.0 12.0 0.00 0.00 0.00 31 997.9
20260904193047 94 162 8.0 19.0 0.00 0.00 0.00 31 998.2
20260904191543 95 208 9.0 15.0 0.00 0.00 0.00 31 998.3
20260904190010 94 249 4.0 11.0 0.00 0.00 0.00 31 998.6
20260904184517 94 270 3.0 15.0 0.00 0.00 0.00 32 998.8
20260904183050 94 261 3.0 12.0 0.00 0.00 0.00 32 999.0
20260904181555 93 229 10.0 16.0 0.00 0.00 0.00 33 999.1
20260904180100 93 184 5.0 10.0 0.00 0.00 0.00 34 999.3
20260904174602 92 261 3.0 9.0 0.00 0.00 0.00 35 999.6
20260904173050 91 225 7.0 15.0 0.00 0.00 0.00 36 999.8
20260904171548 91 261 5.0 13.0 0.00 0.00 0.00 37 999.9
20260904170139 90 249 7.0 15.0 0.00 0.00 0.00 38 1000.1
20260904164537 90 279 9.0 16.0 0.00 0.00 0.00 39 1000.0
20260904163049 89 305 9.0 19.0 0.00 0.00 0.00 40 1000.1
20260904161529 88 263 11.0 17.0 0.00 0.00 0.00 42 1000.0
20260904160026 87 299 8.0 14.0 0.00 0.00 0.00 45 1000.0
20260904154528 86 305 13.0 18.0 0.00 0.00 0.00 46 999.9
20260904153048 85 275 16.0 20.0 0.00 0.00 0.00 47 999.8
20260904151523 84 257 14.0 21.0 0.00 0.00 0.00 48 999.8
20260904150015 83 282 17.0 23.0 0.00 0.00 0.00 50 999.8
20260904144511 81 275 15.0 23.0 0.00 0.00 0.00 52 999.9
20260904143009 80 262 13.0 18.0 0.00 0.00 0.00 53 1000.0
20260904141533 79 261 15.0 19.0 0.00 0.00 0.00 53 1000.0
20260904140040 79 242 14.0 18.0 0.00 0.00 0.00 54 999.9
20260904134507 78 240 12.0 15.0 0.00 0.00 0.00 57 999.9
20260904133040 77 230 12.0 16.0 0.00 0.00 0.00 59 999.8
20260904131519 76 241 12.0 16.0 0.00 0.00 0.00 60 999.4
20260904130013 77 241 12.0 15.0 0.00 0.00 0.00 58 999.2
20260904124510 77 241 11.0 14.0 0.00 0.00 0.00 59 999.2
20260904123113 77 236 12.0 15.0 0.00 0.00 0.00 59 999.1
20260904121601 77 243 12.0 16.0 0.00 0.00 0.00 58 998.8
20260904114554 77 265 12.0 15.0 0.00 0.00 0.00 58 998.7
20260904113059 77 277 11.0 17.0 0.00 0.00 0.00 57 998.4
20260904111552 78 248 13.0 21.0 0.00 0.00 0.00 53 998.5
20260904110056 78 254 13.0 18.0 0.00 0.00 0.00 52 998.3
20260904104559 78 254 13.0 19.0 0.00 0.00 0.00 52 998.2
20260904103058 78 250 15.0 19.0 0.00 0.00 0.00 55 998.0
20260904101607 77 250 13.0 16.0 0.00 0.00 0.00 57 997.9
20260904100059 78 245 12.0 16.0 0.00 0.00 0.00 56 997.8
20260904094551 78 251 8.0 11.0 0.00 0.00 0.00 54 997.7
20260904093104 79 254 10.0 11.0 0.00 0.00 0.00 53 997.7
20260904091539 80 275 9.0 11.0 0.00 0.00 0.00 52 997.7
20260904090047 80 262 7.0 9.0 0.00 0.00 0.00 51 997.6
20260904084535 81 259 6.0 8.0 0.00 0.00 0.00 49 997.7
20260904083030 82 268 6.0 9.0 0.00 0.00 0.00 48 997.8
20260904081530 82 267 7.0 9.0 0.00 0.00 0.00 47 997.9
20260904080029 82 286 8.0 10.0 0.00 0.00 0.00 47 998.0
20260904074530 82 275 9.0 13.0 0.00 0.00 0.00 47 998.2
20260904073040 83 244 9.0 13.0 0.00 0.00 0.00 46 998.4
20260904071600 83 248 10.0 14.0 0.00 0.00 0.00 45 998.3
20260904070056 84 189 4.0 10.0 0.00 0.00 0.00 45 998.3
20260904064543 84 242 10.0 11.0 0.00 0.00 0.00 44 998.5
20260904063048 84 254 2.0 3.0 0.00 0.00 0.00 47 998.4
20260904061553 84 74 4.0 6.0 0.00 0.00 0.00 46 998.7
20260904060041 84 29 6.0 8.0 0.00 0.00 0.00 45 998.6
20260904054557 83 310 7.0 10.0 0.00 0.00 0.00 46 998.5
20260904053002 85 282 1.0 6.0 0.00 0.00 0.00 44 998.2
20260904051508 85 83 2.0 6.0 0.00 0.00 0.00 45 998.0
20260904050101 85 138 7.0 11.0 0.00 0.00 0.00 44 998.0
20260904050003 85 140 7.0 12.0 0.00 0.00 0.00 44 998.0
20260904044610 86 160 13.0 16.0 0.00 0.00 0.00 43 997.8
20260904043023 85 170 11.0 16.0 0.00 0.00 0.00 44 997.7
20260904041527 85 185 7.0 9.0 0.00 0.00 0.00 44 997.7
20260904040033 85 156 6.0 10.0 0.00 0.00 0.00 44 997.8
20260904034546 85 227 8.0 13.0 0.00 0.00 0.00 45 997.9
20260904033016 86 133 10.0 14.0 0.00 0.00 0.00 43 997.6
20260904031516 86 105 10.0 15.0 0.00 0.00 0.00 42 997.5
20260904030028 87 104 9.0 18.0 0.00 0.00 0.00 41 997.5